Location: Moscow
(44.4414°N, 72.7154°W)
Time: 09:25:02
(UTC+00:00)

Vanguard 3 - Visible Passes

Search period start: 07 November 2024 00:00
Search period end: 17 November 2024 00:00
Orbit: 508 x 3221 km, 33.3° (Epoch: 06 November)

Date Brightness Start Highest point End Pass type
(mag) Time Alt. Az. Time Alt. Az. Time Alt. Az.
08 Nov 9.0 00:02:06 10° WSW 00:06:10 17° SSW 00:07:41 15° S visible
08 Nov 9.2 22:40:10 10° WSW 22:47:25 29° SSW 22:52:07 10° SE visible
09 Nov 9.3 23:33:26 10° WSW 23:38:34 20° SSW 23:42:10 11° SSE visible
10 Nov 9.4 22:11:07 10° WSW 22:19:41 32° SSW 22:25:04 10° SE visible
11 Nov 9.5 23:04:31 10° WSW 23:10:50 22° SSW 23:15:15 10° SSE visible
12 Nov 9.6 21:41:50 10° W 21:51:49 35° SSW 21:57:55 10° SE visible
12 Nov 9.9 23:59:44 10° WSW 00:01:34 11° SW 00:03:13 10° SSW visible
13 Nov 9.7 22:35:22 10° W 22:42:59 24° SSW 22:48:06 10° SSE visible
14 Nov 10.1 23:30:15 10° WSW 23:33:41 13° SW 23:36:32 10° SSW visible
15 Nov 9.9 22:05:59 10° W 22:14:57 26° SW 22:20:52 10° SSE visible
16 Nov 10.3 23:00:47 10° WSW 23:05:39 15° SW 23:09:30 10° SSW visible
